Ave Maria, FL

3:00 PM EST on February 14, 2016 (GMT -0500)
Immokalee

Weather History for KIMM - June, 2014

Change the Weather History Date:

Thursday, June 19, 2014

  Actual Average (KFMY) Record (KFMY)
Temperature  
Mean Temperature 80 °F 83 °F  
Max Temperature 93 °F 92 °F 98 °F (1948)
Min Temperature 68 °F 74 °F 63 °F (1981)
Degree Days  
Heating Degree Days 0 0  
Month to date heating degree days 0  
Since 1 June heating degree days 0  
Since 1 July heating degree days 287  
Cooling Degree Days 16 18  
Month to date cooling degree days 330  
Year to date cooling degree days 1396  
Since 1 June cooling degree days 330  
Growing Degree Days 30 (Base 50)    
Moisture  
Dew Point 76 °F    
Average Humidity 80    
Maximum Humidity 100    
Minimum Humidity 52    
Precipitation  
Precipitation 0.00 in 0.38 in 2.78 in (1959)
Month to date precipitation 5.98  
Year to date precipitation 17.78  
Sea Level Pressure  
Sea Level Pressure 30.11 in    
Wind  
Wind Speed 2 mph (ESE)    
Max Wind Speed 14 mph    
Max Gust Speed 30 mph    
T = Trace of Precipitation, MM = Missing Value Source: NWS Daily Summary

Daily Weather History Graph

Daily Weather History Graph

Search for Another Location

Airport or City:

Trip Planner

Search our weather history database for the weather conditions in past years. The results will help you decide how hot, cold, wet, or windy it might be!

Date:

Astronomy

Jun. 19, 2014 Rise Set
Actual Time 6:33 AM EDT 8:20 PM EDT
Civil Twilight 6:06 AM EDT 8:47 PM EDT
Nautical Twilight 5:35 AM EDT 9:18 PM EDT
Astronomical Twilight 5:01 AM EDT 9:52 PM EDT
Moon 12:58 AM EDT (6/19) 1:23 PM EDT (6/19)
Length of Visible Light 14h 40m
Length of Day
13h 47m
Waning Gibbous, 51% of the Moon is Illuminated
Jun 19
Waning Gibbous
Jun 19
Last Quarter
Jun 27
New
Jul 5
First Quarter
Jul 12
Full

Hourly Weather History & Observations

Time (EDT) Temp. Heat Index Dew Point Humidity Pressure Visibility Wind Dir Wind Speed Gust Speed Precip Events Conditions
12:15 AM 69.8 °F - - N/A% 30.13 in - NNE 3.5 mph - 0.00 in   Unknown
12:35 AM 69.8 °F - - N/A% 30.13 in - Calm Calm - 0.00 in   Unknown
12:55 AM 69.8 °F - - N/A% 30.13 in - Calm Calm - 0.00 in   Unknown
1:15 AM 69.8 °F - - N/A% 30.13 in - Calm Calm - 0.00 in   Unknown
1:35 AM 68.0 °F - - N/A% 30.12 in - Calm Calm - 0.00 in   Unknown
1:55 AM 69.8 °F - - N/A% 30.11 in - Calm Calm - 0.00 in   Unknown
2:15 AM 69.8 °F - - N/A% 30.11 in - NE 4.6 mph - 0.00 in   Unknown
2:35 AM 69.8 °F - - N/A% 30.10 in - Calm Calm - 0.00 in   Unknown
2:55 AM 69.8 °F - - N/A% 30.10 in - Calm Calm - 0.00 in   Unknown
3:15 AM 69.8 °F - - N/A% 30.10 in - Calm Calm - 0.00 in   Unknown
3:35 AM 69.8 °F - - N/A% 30.09 in - Calm Calm - 0.00 in   Unknown
4:15 AM 69.8 °F - - N/A% 30.08 in - Calm Calm - 0.00 in   Unknown
4:35 AM 69.8 °F - - N/A% 30.08 in - Calm Calm - 0.00 in   Unknown
4:55 AM 69.8 °F - - N/A% 30.08 in - Calm Calm - 0.00 in   Unknown
5:15 AM 69.8 °F - - N/A% 30.08 in - Calm Calm - 0.00 in   Unknown
5:35 AM 69.8 °F - - N/A% 30.09 in - Calm Calm - 0.00 in   Unknown
5:55 AM 69.8 °F - - N/A% 30.08 in - Calm Calm - 0.00 in   Unknown
6:15 AM 69.8 °F - - N/A% 30.08 in - Calm Calm - 0.00 in   Unknown
6:35 AM 69.8 °F - - N/A% 30.09 in - Calm Calm - 0.00 in   Unknown
7:15 AM 69.8 °F - - N/A% 30.11 in - Calm Calm - 0.00 in   Unknown
7:35 AM 69.8 °F - - N/A% 30.11 in - Calm Calm - 0.00 in   Unknown
7:55 AM 71.6 °F - - N/A% 30.11 in - Calm Calm - 0.00 in   Unknown
8:15 AM 73.4 °F - - N/A% 30.12 in - Calm Calm - 0.00 in   Unknown
8:35 AM 75.2 °F - - N/A% 30.13 in - East 3.5 mph - 0.00 in   Unknown
8:55 AM 77.0 °F - - N/A% 30.13 in - ENE 6.9 mph - 0.00 in   Unknown
9:15 AM 77.0 °F - - N/A% 30.14 in - East 3.5 mph - 0.00 in   Unknown
9:35 AM 78.8 °F - 78.8 °F 100% 30.14 in - East 4.6 mph - 0.00 in   Unknown
10:15 AM 86.0 °F 101.9 °F 80.6 °F 84% 30.13 in - ESE 5.8 mph - 0.00 in   Clear
10:55 AM 87.8 °F 104.9 °F 80.6 °F 79% 30.13 in - Calm Calm - 0.00 in   Clear
11:15 AM 89.6 °F 108.2 °F 80.6 °F 75% 30.14 in - SSE 6.9 mph - 0.00 in   Partly Cloudy
11:35 AM 87.8 °F 102.5 °F 78.8 °F 75% 30.14 in - SSE 3.5 mph - 0.00 in   Scattered Clouds
11:55 AM 89.6 °F 104.7 °F 78.8 °F 70% 30.14 in - ESE 5.8 mph - 0.00 in   Partly Cloudy
12:15 PM 89.6 °F 102.2 °F 77.0 °F 66% 30.14 in - East 3.5 mph - 0.00 in   Partly Cloudy
12:35 PM 89.6 °F 99.8 °F 75.2 °F 62% 30.13 in - Calm Calm - 0.00 in   Mostly Cloudy
12:55 PM 91.4 °F 100.1 °F 73.4 °F 55% 30.13 in - Calm Calm - 0.00 in   Scattered Clouds
1:15 PM 93.2 °F 102.4 °F 73.4 °F 52% 30.13 in - Calm Calm - 0.00 in   Clear
1:35 PM 93.2 °F 102.4 °F 73.4 °F 52% 30.12 in - SW 5.8 mph - 0.00 in   Clear
1:55 PM 80.6 °F 83.9 °F 69.8 °F 70% 30.13 in - NNW 13.8 mph 24.2 mph 0.00 in   Mostly Cloudy
2:15 PM 77.0 °F - 75.2 °F 94% 30.14 in - North 10.4 mph 29.9 mph 0.00 in   Unknown
2:35 PM 77.0 °F - 73.4 °F 89% 30.12 in - North 9.2 mph - 0.00 in   Unknown
2:55 PM 77.0 °F - 75.2 °F 94% 30.12 in - North 5.8 mph - 0.00 in   Unknown
3:15 PM 78.8 °F - 75.2 °F 89% 30.11 in - North 5.8 mph - 0.00 in   Unknown
3:35 PM 80.6 °F 86.2 °F 75.2 °F 84% 30.10 in - North 3.5 mph - 0.00 in   Clear
3:55 PM 82.4 °F 88.2 °F 73.4 °F 74% 30.11 in - Calm Calm - 0.00 in   Clear
4:15 PM 84.2 °F 90.9 °F 73.4 °F 70% 30.11 in - Calm Calm - 0.00 in   Partly Cloudy
4:35 PM 84.2 °F 90.9 °F 73.4 °F 70% 30.10 in - Calm Calm - 0.00 in   Clear
4:55 PM 84.2 °F 92.3 °F 75.2 °F 74% 30.09 in - Calm Calm - 0.00 in   Clear
5:15 PM 86.0 °F 95.1 °F 75.2 °F 70% 30.10 in - Calm Calm - 0.00 in   Clear
5:35 PM 87.8 °F 97.6 °F 75.2 °F 66% 30.10 in - Calm Calm - 0.00 in   Clear
5:55 PM 87.8 °F 97.6 °F 75.2 °F 66% 30.10 in - Calm Calm - 0.00 in   Clear
6:15 PM 87.8 °F 97.6 °F 75.2 °F 66% 30.10 in - East 5.8 mph - 0.00 in   Clear
6:35 PM 84.2 °F 94.1 °F 77.0 °F 79% 30.10 in - ESE 8.1 mph - 0.00 in   Clear
6:55 PM 84.2 °F 96.1 °F 78.8 °F 84% 30.09 in - East 9.2 mph - 0.00 in   Clear
7:15 PM 82.4 °F 90.9 °F 77.0 °F 84% 30.09 in - East 5.8 mph - 0.00 in   Clear
7:35 PM 82.4 °F 92.4 °F 78.8 °F 89% 30.09 in - ESE 6.9 mph - 0.00 in   Unknown
7:55 PM 80.6 °F 88.1 °F 78.8 °F 94% 30.09 in - SSE 5.8 mph - 0.00 in   Unknown
8:15 PM 78.8 °F - 78.8 °F 100% 30.09 in - SSE 6.9 mph - 0.00 in   Unknown
8:35 PM 78.8 °F - 78.8 °F 100% 30.09 in - SE 4.6 mph - 0.00 in   Unknown
9:15 PM 75.2 °F - 75.2 °F 100% 30.10 in - SE 6.9 mph - 0.00 in   Unknown
9:35 PM 75.2 °F - 75.2 °F 100% 30.11 in - SSE 4.6 mph - 0.00 in   Unknown
9:55 PM 73.4 °F - 73.4 °F 100% 30.12 in - Calm Calm - 0.00 in   Unknown
10:15 PM 73.4 °F - 73.4 °F 100% 30.12 in - Calm Calm - 0.00 in   Unknown
10:35 PM 73.4 °F - - N/A% 30.12 in - Calm Calm - 0.00 in   Unknown
10:55 PM 73.4 °F - - N/A% 30.12 in - South 5.8 mph - 0.00 in   Unknown
11:15 PM 73.4 °F - - N/A% 30.12 in - South 5.8 mph - 0.00 in   Unknown
11:35 PM 71.6 °F - - N/A% 30.11 in - Calm Calm - 0.00 in   Unknown
11:55 PM 71.6 °F - - N/A% 30.11 in - SSE 4.6 mph - 0.00 in   Unknown